Logan, UT

8:32 PM MDT on March 24, 2017 (GMT -0600)
Logan-Cache

Weather History for KLGU - March, 2014

Change the Weather History Date:

Sunday, March 9, 2014

  Actual Average Record
Temperature  
Mean Temperature 42 °F -  
Max Temperature 57 °F 47 °F 73 °F (1972)
Min Temperature 28 °F 25 °F -5 °F (1969)
Degree Days  
Heating Degree Days 22    
Moisture  
Dew Point 29 °F    
Average Humidity 59    
Maximum Humidity 85    
Minimum Humidity 26    
Precipitation  
Precipitation 0.00 in - - ()
Sea Level Pressure  
Sea Level Pressure 30.24 in    
Wind  
Wind Speed 3 mph (NNW)    
Max Wind Speed 10 mph    
Max Gust Speed -    
Visibility 10 miles    
Events      
Averages and records for this station are not official NWS values.
T = Trace of Precipitation, MM = Missing Value Source: NWS Daily Summary

Daily Weather History Graph

Daily Weather History Graph

Search for Another Location

Airport or City:

Trip Planner

Search our weather history database for the weather conditions in past years. The results will help you decide how hot, cold, wet, or windy it might be!

Date:

Astronomy

Mar. 09, 2014 Rise Set
Actual Time 7:49 AM MDT 7:27 PM MDT
Civil Twilight 7:21 AM MDT 7:55 PM MDT
Nautical Twilight 6:49 AM MDT 8:27 PM MDT
Astronomical Twilight 6:16 AM MDT 8:59 PM MDT
Moon 1:19 PM MDT (3/9) 3:21 AM MDT (3/9)
Length of Visible Light 12h 33m
Length of Day
11h 38m
First Quarter, 61% of the Moon is Illuminated
Mar 9
First Quarter
Mar 16
Full
Mar 23
Last Quarter
Mar 30
New
Apr 7
First Quarter

Hourly Weather History & Observations

Time (MDT) Temp. Windchill Dew Point Humidity Pressure Visibility Wind Dir Wind Speed Gust Speed Precip Events Conditions
12:51 AM 35.1 °F - 28.0 °F 76% 30.33 in 10.0 mi Calm Calm - N/A   Clear
1:51 AM 33.1 °F - 28.9 °F 85% 30.34 in 10.0 mi Calm Calm - N/A   Clear
3:51 AM 33.1 °F 26.9 °F 27.0 °F 78% 30.32 in 10.0 mi ESE 6.9 mph - N/A   Clear
4:51 AM 33.1 °F 26.1 °F 27.0 °F 78% 30.30 in 10.0 mi SSW 8.1 mph - N/A   Clear
5:51 AM 28.9 °F 25.2 °F 25.0 °F 85% 30.31 in 10.0 mi Variable 3.5 mph - N/A   Clear
6:51 AM 30.9 °F - 26.1 °F 82% 30.30 in 10.0 mi Calm Calm - N/A   Clear
7:51 AM 30.9 °F 25.2 °F 25.0 °F 79% 30.30 in 10.0 mi ESE 5.8 mph - N/A   Clear
8:51 AM 33.1 °F 30.0 °F 28.9 °F 85% 30.31 in 10.0 mi NNW 3.5 mph - N/A   Clear
9:51 AM 37.9 °F - 30.0 °F 73% 30.31 in 10.0 mi Calm Calm - N/A   Clear
10:51 AM 43.0 °F 40.3 °F 30.9 °F 62% 30.30 in 10.0 mi North 4.6 mph - N/A   Clear
11:51 AM 46.0 °F 44.8 °F 30.9 °F 56% 30.28 in 10.0 mi North 3.5 mph - N/A   Clear
12:51 PM 51.1 °F - 30.9 °F 46% 30.27 in 10.0 mi Variable 3.5 mph - N/A   Clear
1:51 PM 53.1 °F - 28.0 °F 38% 30.24 in 10.0 mi WNW 3.5 mph - N/A   Clear
2:51 PM 55.9 °F - 26.1 °F 32% 30.20 in 10.0 mi Variable 6.9 mph - N/A   Clear
3:51 PM 57.0 °F - 26.1 °F 30% 30.19 in 10.0 mi NNE 5.8 mph - N/A   Clear
4:51 PM 57.0 °F - 21.9 °F 26% 30.17 in 10.0 mi West 3.5 mph - N/A   Clear
5:51 PM 55.9 °F - 28.9 °F 36% 30.19 in 10.0 mi WNW 10.4 mph - N/A   Mostly Cloudy
6:51 PM 52.0 °F - 33.1 °F 49% 30.19 in 10.0 mi North 8.1 mph - N/A   Overcast
7:51 PM 53.1 °F - 28.0 °F 38% 30.17 in 10.0 mi ENE 6.9 mph - N/A   Overcast
8:51 PM 50.0 °F - 32.0 °F 50% 30.17 in 10.0 mi WSW 4.6 mph - N/A   Overcast
9:51 PM 50.0 °F - 32.0 °F 50% 30.15 in 10.0 mi SSE 4.6 mph - N/A   Overcast
10:51 PM 50.0 °F - 32.0 °F 50% 30.13 in 10.0 mi Calm Calm - N/A   Overcast
11:51 PM 48.0 °F - 36.0 °F 63% 30.10 in 10.0 mi SW 3.5 mph - N/A   Overcast
12:51 AM 46.0 °F - 37.9 °F 73% 30.08 in 10.0 mi Calm Calm - N/A   Mostly Cloudy